User: anonymous   Login
Location: Albany
(35.0000°S, 118.0000°E)
Time: 00:40:32
(UTC-04:00)
Language:

SJ-6B - Orbit

View from above orbital plane
View from above orbital plane
View from above satellite
View from above satellite

Ground track
Ground track

The orbit data is extracted from the following two-line orbital elements,

1 28415U 04035C   16209.84923252  .00000096  00000-0  10987-4 0  9999
2 28415  97.7758 230.8135 0053993 140.0690 220.4528 15.05785333649761
Epoch (UTC): 27 July 2016 20:22:53
Eccentricity: 0.0053993
inclination: 97.7758°
perigee height: 512 km
apogee height: 586 km
right ascension of ascending node: 230.8135°
argument of perigee: 140.0690°
revolutions per day: 15.05785333
mean anomaly at epoch: 220.4528°
orbit number at epoch: 64976

The dashed part of the orbit path shows where the satellite is in the earth's shadow,  

DLR